Regional Weather Roundup
Issued by NWS

Home | Current Version | Previous Version | Graphics & Text | Print | Product List | Glossary On
Versions: 1 2 3 4 5 6 7 8 9 10 11 12 13 14 15 16 17 18 19 20 21 22 23 24 25 26 27 28 29 30 31 32 33 34 35 36 37 38 39 40 41 42 43 44 45 46 47 48 49 50
000
ASUS45 KCYS 222010
RWRWY

WYOMING REGIONAL WEATHER ROUNDUP
NATIONAL WEATHER SERVICE CHEYENNE WY
200 PM MDT FRI AUG 22 2014

NOTE:  "FAIR" INDICATES FEW OR NO CLOUDS BELOW 12,000 FEET
WITH NO SIGNIFICANT WEATHER AND/OR OBSTRUCTIONS TO VISIBILITY.

WYZ001-222100-
YELLOWSTONE NATIONAL PARK

CITY           SKY/WX    TMP DP  RH WIND       PRES   REMARKS
LK YELLOWSTONE   N/A     50  41  71 VRB6      30.21S
W YELLOWSTONE  NOT AVBL

$$
WYZ002>013-054>058-071-098>099-222100-
NORTHERN WYOMING

CITY           SKY/WX    TMP DP  RH WIND       PRES   REMARKS
JACKSON        PTSUNNY   50  48  93 SW10      30.18F
CODY           PTSUNNY   63  50  63 E8        30.08F
GREYBULL       LGT RAIN  61  58  90 NE5       30.04F
WORLAND        CLOUDY    69  51  52 NW15      30.03S
SHERIDAN       CLOUDY    69  56  62 NW7       30.02F
BUFFALO        TSTM      69  52  54 SE9       30.05F
GILLETTE       MOSUNNY   76  51  41 SE3       30.03F
HULETT         CLOUDY    72  57  60 MISG      30.07
NEWCASTLE      FAIR      77  50  38 E3        30.05

$$
WYZ014>020-022>026-101>103-222100-
CENTRAL WYOMING

CITY           SKY/WX    TMP DP  RH WIND       PRES   REMARKS
BIG PINEY      CLOUDY    51  42  71 N23G30    30.22R
PINEDALE       CLOUDY    52  45  76 NW24      30.21R
DUBOIS         RAIN      52  41  66 W16G23    30.19R
LANDER         PTSUNNY   68  50  52 N10       30.05F
RIVERTON       MOSUNNY   71  48  43 N14       30.06F
CASPER         SUNNY     78  46  32 MISG      30.04F
DOUGLAS        MOSUNNY   80  50  34 SE14G22   30.05F

$$
WYZ021-027>030-104>119-222100-
SOUTHERN WYOMING

CITY           SKY/WX    TMP DP  RH WIND       PRES   REMARKS
EVANSTON       CLOUDY    70  44  39 W10       30.12F
KEMMERER       MOCLDY    66  43  42 NW13G20   30.15F
FORT BRIDGER   FAIR      65  47  51 W3        30.17S
ROCK SPRINGS   MOSUNNY   74  38  27 W9G20     30.08F
DIXON          LGT RAIN  67  51  54 W3        30.15F
RAWLINS        CLOUDY    75  41  29 S18       30.12F
SARATOGA       CLOUDY    68  43  40 MISG      30.17S
LARAMIE        CLOUDY    71  38  29 S10       30.18F
CHEYENNE       CLOUDY    71  47  42 S12       30.15F
TORRINGTON     CLOUDY    73  54  51 SE7       30.05F
PINE BLUFFS    MOCLDY    77  50  38 SE10      30.11S

$$



USA.gov is the U.S. government's official web portal to all federal, state and local government web resources and services.